Chippewa County International Airport
KCIU : now visible

Airfield :











YOU CAN JOIN US ON...

 
LOGIN :

Register | Disclaimer

   EN    FR    IT 

 









Legend :    VFR   Marginal VFR   IFR   Intensive IFR   Very Intensive IFR
Visi :
Ceiling :
>= 8 km
>= 3000ft
5 to 8 km
1000 to 3000 ft
1500m to 5 km
500 to 1000 ft
800 to 1500m
200 to 500 ft
< 800m
< 200 ft
Symbols :   Thunderstorms  Fog  Heavy snow  Heavy precipitations  Wind > 20 kt






- Airport Elevation : 800 ft
- IATA code : CIU


KCIU - Chippewa County International

CURRENT METAR :
  • 190156Z AUTO 12003KT 10SM OVC023 02/M01 A2972 RMK AO2 SLP073 T00171011 FZRANO

EXPIRED METARs :
  • 190056Z AUTO 00000KT 10SM OVC021 02/M01 A2973 RMK AO2 SLP077 T00171011 FZRANO
  • 182356Z AUTO 13003KT 10SM OVC019 02/M01 A2973 RMK AO2 SLP075 T00221011 10033 20022 53004 FZRANO

TAF N/A



MET'MAP, your aeronautical weather chart ! - Copyright ORBIFLY December 2007 - Disclaimer

ORBIFLY MET'MAP TEAM :

Programming & Development : Alexandra Zaïnal
Concept & Development : Baudouin d'Aumeries
Co-Development & Prog : Marc-Olivier Méhu
Technical & hardware support : Manuel Goepfert

Contact : metmap@orbifly.com




SOURCES & CREDITS :

   NOAA       Earth
Advisory